Location: Unspecified
(0.0000°N, 0.0000°E)
Time: 11:31:57
(UTC+00:00)

Courier 1B - Pass Details

Date: 21 November 2019
Orbit: 963 x 1209 km, 28.3° (Epoch: 07 December)

Event Time Altitude Azimuth Distance (km) Brightness Sun altitude
Rises 23:31:29 0° 229° (SW) 4,105 - -69.7°
Reaches altitude 10° 23:34:28 10° 224° (SW) 3,144 - -69.8°
Maximum altitude 23:42:01 49° 151° (SSE) 1,506 - -70.0°
Drops below altitude 10° 23:49:22 10° 78° (ENE) 3,068 - -70.0°
Sets 23:52:14 0° 73° (ENE) 3,999 - -69.9°
